RH
5 14 15 8 20 37 32 25 24 34 31 32 36 35 32 32 32 37 46 42 44 42 25 26 46 47 43 39 40 41 42 48 56 49 28 17 8 6 8 9 10 12 12 11 10 8 8 8 8
5 4 11 13 15 35 26 15 26 21 17 33 36 35 33 32 32 35 38 43 36 41 25 25 40 48 45 41 41 43 46 55 56 48 28 16 8 8 11 12 12 12 12 10 10 10 10 10 9
3 6 5 12 14 23 17 18 16 17 27 28 34 36 35 34 31 35 41 50 47 32 26 27 38 45 47 44 44 44 48 60 60 46 41 20 9 10 11 12 12 11 11 11 11 11 11 10 10
2 4 6 8 8 14 17 22 36 39 39 41 40 35 37 36 33 34 46 53 48 41 30 28 42 47 48 46 45 45 49 61 65 50 62 57 13 9 12 12 12 11 12 12 12 12 12 12 11
4 4 6 7 10 10 18 17 29 27 35 37 39 42 36 36 36 34 42 56 54 44 32 29 44 50 50 48 46 46 51 61 70 58 70 57 27 9 12 13 12 11 12 13 13 12 12 12 12
6 5 7 12 21 19 12 18 27 37 32 35 37 46 41 38 37 36 38 54 57 52 36 30 40 50 53 51 48 46 53 64 71 59 68 40 19 11 10 13 13 12 12 12 13 13 13 13 13
7 6 8 11 13 15 24 29 18 21 27 33 39 48 50 44 42 42 39 47 51 52 38 33 34 50 53 55 51 46 53 66 73 62 70 59 60 37 12 12 14 13 13 14 13 13 13 14 14
8 8 8 8 10 9 9 14 26 36 18 26 32 38 55 51 51 48 46 49 43 44 40 34 35 46 54 58 54 47 52 66 76 76 71 70 73 68 58 25 14 14 14 15 14 14 13 14 14
10 10 9 8 8 8 8 8 12 24 34 22 30 38 45 57 59 72 48 47 44 45 47 34 40 39 54 59 58 52 52 61 74 81 76 75 74 67 69 58 25 16 15 16 16 15 14 14 15
19 14 12 13 14 14 12 11 8 9 17 29 27 37 42 52 64 73 74 59 55 44 49 39 42 44 50 62 59 56 55 58 64 75 81 80 79 67 70 61 33 16 16 16 16 16 15 14 16
24 19 22 22 28 30 28 23 16 12 8 11 28 32 44 51 71 81 97 97 55 48 45 45 41 46 48 59 60 56 57 56 63 70 84 79 76 65 65 59 47 21 16 17 17 16 15 14 15
28 16 18 18 21 25 22 24 33 28 18 11 12 28 36 54 72 90 94 98 100 58 41 49 42 45 49 61 60 57 55 57 56 60 72 77 71 63 69 63 64 59 26 17 18 17 16 15 14
20 23 24 32 43 39 34 28 24 25 25 28 16 12 26 41 61 99 91 97 99 85 46 51 48 47 49 57 60 60 58 57 58 55 60 77 71 61 65 66 70 69 64 34 17 18 17 16 15
31 26 21 31 28 21 38 31 35 18 19 20 28 16 12 25 52 93 98 98 100 98 71 50 50 48 49 50 58 62 63 59 66 56 58 70 75 67 58 52 54 64 68 59 28 18 18 17 16
43 42 30 32 35 31 48 31 30 23 25 28 26 28 17 14 23 66 99 99 98 96 97 64 49 50 47 48 56 61 65 63 65 60 61 69 74 73 66 60 63 60 63 62 49 19 17 17 17
56 57 45 41 50 45 60 28 26 35 38 50 48 44 27 12 12 43 83 93 97 100 99 83 64 53 50 51 53 59 65 66 63 64 64 70 75 76 70 66 65 57 56 65 50 28 17 18 18
68 67 55 55 58 69 75 43 28 38 38 38 58 54 45 21 11 9 60 95 99 97 100 100 97 54 53 54 57 59 67 69 67 66 64 69 72 79 73 69 66 56 56 70 45 33 18 18 18
66 81 74 71 60 78 87 70 54 48 60 52 47 57 49 19 11 13 26 94 98 97 100 99 99 79 60 54 57 60 65 73 74 72 66 67 71 81 82 70 66 54 58 78 52 41 29 18 17
74 91 89 49 63 98 91 72 46 32 54 64 55 49 49 19 10 13 12 65 96 100 99 100 97 99 66 55 55 59 59 73 77 75 70 69 77 84 77 70 65 48 45 67 80 78 71 47 21
97 100 84 72 76 98 83 69 60 63 54 48 58 50 62 43 13 31 21 16 60 100 82 94 98 94 66 59 58 57 55 66 74 77 75 73 80 84 74 75 70 54 39 34 55 61 72 75 55
70 89 64 92 83 98 98 85 62 49 54 59 59 42 51 42 38 23 11 11 76 94 99 68 97 70 73 63 61 63 72 78 83 83 79 72 74 79 82 83 74 57 40 32 28 34 54 79 66
94 45 79 95 100 94 94 89 56 79 89 80 70 48 58 34 29 33 25 12 80 94 99 100 91 72 88 72 62 62 67 76 81 75 72 72 76 83 85 86 78 56 44 36 26 17 26 66 78
58 84 89 100 100 99 68 97 70 77 86 42 40 47 29 38 60 86 42 21 38 90 82 93 98 78 86 72 73 71 76 74 73 71 72 75 85 88 88 90 82 67 57 40 25 16 13 24 63
84 91 89 98 100 98 56 96 83 99 93 83 39 42 43 60 78 59 23 35 81 88 84 99 97 99 82 71 75 84 79 77 77 78 73 75 86 89 96 90 83 71 59 38 23 16 15 15 17
83 88 89 95 99 92 67 96 90 84 64 92 98 63 56 88 83 54 68 80 82 86 82 100 72 94 87 73 77 84 86 78 83 79 75 75 84 86 93 88 83 79 58 39 24 18 17 23 20
75 90 97 95 87 73 65 86 74 58 58 86 100 99 84 37 51 60 77 74 98 92 99 74 93 82 80 68 79 84 84 89 91 86 78 78 84 86 92 87 87 85 58 48 35 24 19 18 24
83 76 86 96 82 98 69 62 53 52 50 79 98 74 66 65 46 43 50 71 68 98 96 94 97 84 73 75 80 80 85 93 90 87 84 85 83 91 97 90 94 90 71 55 50 40 30 23 20
93 99 92 80 96 90 80 69 57 59 51 61 100 97 91 72 64 46 61 79 79 100 100 86 99 74 66 61 69 73 81 87 87 84 86 76 82 99 92 88 92 92 87 84 63 51 47 38 30
78 93 97 89 92 97 96 71 60 60 57 60 87 100 89 92 85 56 66 85 98 100 100 100 85 76 66 68 70 70 88 89 86 84 83 77 86 93 88 88 91 92 92 92 89 80 69 55 46
91 98 97 98 91 96 90 73 66 70 66 58 90 100 92 90 84 85 86 95 93 92 87 84 79 75 72 67 68 73 84 86 85 82 78 79 86 85 87 91 93 91 94 99 98 91 84 82 77
Wind_Speed
26 25 26 26 17 16 32 36 29 16 13 9 13 18 18 18 19 20 13 6 8 11 16 17 19 18 17 15 14 13 13 13 15 13 10 9 10 15 18 17 17 17 17 16 16 15 13 13 13
26 25 25 27 26 29 36 36 31 23 16 13 18 17 24 25 20 27 28 19 12 15 17 19 20 19 18 16 14 14 13 14 14 13 11 11 12 16 18 17 16 17 17 17 17 17 16 15 14
25 24 22 23 35 40 38 35 31 25 8 9 21 18 18 27 28 25 25 21 19 13 17 20 21 21 20 18 16 14 14 15 15 14 13 13 13 16 15 16 15 17 18 18 17 16 15 15 13
14 21 24 33 34 25 38 23 8 15 18 19 26 28 25 28 29 30 21 21 22 19 18 22 23 22 22 20 18 16 15 15 16 16 14 13 13 14 14 14 15 16 16 16 16 15 13 13 12
14 17 26 33 33 38 26 19 13 26 27 21 14 32 32 33 32 35 28 22 21 22 17 24 25 24 23 22 20 18 16 16 17 17 14 14 14 14 15 14 14 15 13 14 14 14 13 11 11
17 20 25 29 27 28 25 19 32 23 28 26 19 23 32 35 32 32 38 25 26 26 21 26 28 26 25 24 22 21 19 19 18 19 16 16 16 15 15 15 15 15 15 13 13 13 12 12 10
20 24 33 31 34 32 21 16 28 35 33 31 24 22 26 36 35 37 41 35 30 28 26 28 30 29 27 26 25 23 22 21 20 19 17 17 15 15 15 17 16 16 16 14 12 12 11 11 11
21 27 36 35 35 40 32 29 29 27 46 40 33 30 21 34 29 29 36 32 36 29 29 29 32 32 31 29 28 26 24 23 22 22 19 17 15 14 15 14 16 16 16 16 15 13 12 11 10
24 28 35 36 34 37 34 36 34 36 38 46 40 36 31 32 29 31 41 41 35 35 33 31 34 34 33 32 31 29 27 26 24 24 21 18 14 12 15 17 17 17 16 15 15 14 12 10 9
22 30 33 30 34 40 40 37 39 43 45 46 50 42 40 36 27 35 40 44 37 39 39 34 36 36 37 36 34 32 30 28 26 25 23 20 15 12 15 18 18 18 18 18 16 14 13 12 9
22 29 27 29 32 36 41 42 41 45 55 47 53 53 43 41 32 40 42 42 42 37 43 38 38 39 39 38 36 34 32 30 28 25 25 22 17 14 16 17 17 17 18 18 17 16 14 13 11
24 23 25 28 28 32 37 39 45 49 55 51 53 55 56 50 39 45 47 47 45 42 44 43 40 41 40 39 37 35 33 31 29 27 25 23 20 16 17 18 17 17 17 19 19 18 16 15 13
25 25 29 31 33 35 36 41 44 50 49 51 54 60 61 58 52 48 52 52 49 46 45 47 43 44 44 43 41 38 35 32 30 28 25 24 22 18 18 18 20 19 19 19 20 18 17 16 14
27 30 34 35 37 36 40 42 41 50 42 47 55 62 65 62 60 50 57 56 56 47 47 51 48 46 45 44 42 39 36 33 33 29 26 25 24 20 18 18 18 19 20 21 21 21 20 18 16
29 37 40 40 38 39 29 49 57 45 40 46 48 58 64 60 63 62 57 49 55 55 51 51 50 48 45 45 43 41 37 35 33 30 29 27 27 23 20 19 17 19 20 22 22 23 22 20 18
32 33 41 38 33 31 22 60 53 37 37 43 46 50 56 63 63 67 66 61 66 47 54 56 53 50 48 47 45 42 40 38 35 32 29 28 27 24 22 19 17 17 18 20 21 21 21 20 19
25 31 43 46 37 32 25 54 51 44 39 46 43 50 52 60 61 66 78 74 55 55 52 53 56 54 52 50 48 45 41 40 36 34 31 29 28 25 23 21 17 17 17 18 20 20 21 21 20
26 32 42 47 42 35 40 60 60 53 49 52 49 48 49 53 59 61 72 84 68 58 53 56 58 58 54 50 49 46 44 42 38 35 32 32 29 28 24 22 20 19 18 20 20 20 21 22 22
33 40 47 46 43 48 55 60 56 53 51 53 54 52 48 48 56 59 57 82 69 55 70 54 60 63 56 54 51 48 47 44 41 38 35 34 30 28 26 24 22 19 19 20 22 24 23 22 22
35 41 53 58 44 36 51 65 65 61 58 59 62 56 59 51 58 51 49 66 74 58 65 56 70 66 60 56 47 44 44 43 40 39 38 34 31 29 27 26 22 21 21 23 24 24 24 24 24
38 43 49 50 57 49 50 67 61 55 51 56 59 55 53 63 51 58 52 65 81 68 50 65 69 67 64 54 50 47 45 45 45 43 40 35 32 31 29 26 24 23 23 23 23 24 23 24 24
37 29 39 48 47 28 23 16 63 46 46 48 40 55 47 50 44 48 52 64 77 64 67 45 71 69 66 57 52 49 49 48 47 42 37 34 33 32 29 26 24 23 23 22 23 23 24 26 26
35 33 39 46 52 41 48 16 32 37 28 20 28 36 38 38 42 47 44 74 78 76 47 56 73 69 66 60 53 50 48 45 44 41 36 36 33 32 29 26 25 24 24 22 22 23 24 27 28
30 36 43 22 18 7 25 13 18 22 32 15 21 30 41 39 36 19 41 56 66 66 66 38 75 76 66 57 52 50 48 47 45 39 38 36 33 32 31 27 26 25 22 20 20 22 24 25 27
25 32 9 4 3 6 22 17 16 23 34 31 9 6 28 36 27 19 31 46 65 59 49 87 75 68 64 53 53 51 47 45 42 38 36 34 32 32 30 27 26 24 21 19 19 21 22 22 23
26 22 9 8 6 15 37 5 14 40 35 24 15 17 13 17 26 22 28 42 52 43 73 75 62 62 55 52 51 50 47 44 41 37 35 31 31 29 29 27 26 24 23 21 20 20 21 22 22
15 19 21 12 20 7 11 17 12 52 51 27 19 7 20 19 20 19 28 52 44 49 66 64 58 55 49 49 49 48 45 43 42 38 35 32 32 31 29 27 27 26 25 24 22 21 21 21 22
15 13 9 8 5 6 8 15 21 48 55 38 22 17 6 15 15 19 28 34 35 46 57 62 53 44 46 46 45 44 44 43 40 38 36 33 31 32 31 32 30 28 28 27 25 25 24 23 22
19 17 11 16 11 4 5 9 29 40 46 42 30 11 5 11 20 24 28 31 45 47 55 48 44 44 44 44 44 44 44 43 41 39 36 33 30 32 31 31 28 29 30 29 29 28 28 26 25
6 5 13 9 9 16 7 10 18 37 43 40 27 13 6 6 15 21 34 46 32 29 38 40 41 40 39 41 42 42 42 42 41 39 36 32 30 32 31 30 28 30 32 30 30 30 32 34 34
Wind_Direction
256 250 242 244 235 227 239 243 244 239 229 213 234 249 252 251 242 234 258 311 265 224 209 208 202 201 201 200 187 179 168 159 151 145 140 132 128 128 127 129 127 124 124 119 121 120 117 114 112
255 247 239 236 230 226 245 247 243 249 250 221 226 241 246 244 237 239 251 260 275 215 214 209 206 202 202 201 195 186 177 170 159 150 146 139 137 136 134 133 130 127 126 131 132 134 129 127 124
255 248 235 229 236 230 244 256 257 260 290 249 244 246 244 240 236 235 247 250 245 236 211 208 209 206 204 201 196 192 186 175 167 154 148 142 144 141 139 135 135 134 136 134 136 134 132 130 126
264 246 238 235 234 246 244 248 230 228 240 251 241 247 243 237 236 238 244 244 251 254 223 208 206 206 206 205 198 194 194 182 173 160 154 149 146 147 143 143 139 141 140 139 134 133 131 130 129
277 255 238 245 245 245 245 239 234 229 233 227 244 251 241 247 240 238 245 242 236 244 238 212 205 206 207 207 203 198 194 189 180 167 159 156 155 155 152 149 149 146 144 143 142 139 137 135 129
274 259 252 250 256 251 242 238 233 234 227 236 240 229 245 245 241 242 242 239 231 239 240 219 207 205 207 209 208 201 193 189 185 175 165 155 150 159 159 156 158 154 156 154 151 147 144 138 127
260 263 260 262 264 263 250 232 243 231 222 227 234 236 227 242 251 250 243 239 233 235 230 219 211 204 206 209 210 205 197 190 187 184 175 165 162 158 162 164 165 164 161 158 159 155 152 147 140
261 257 262 265 270 272 270 259 239 239 223 231 235 239 226 226 227 234 240 243 236 230 224 218 214 207 205 206 208 207 201 194 190 188 183 180 177 176 174 173 172 171 169 165 166 168 165 163 149
262 261 262 270 275 275 276 273 255 243 244 223 235 232 227 222 226 234 241 242 232 228 220 217 215 211 208 207 205 205 203 199 193 195 192 189 189 192 190 184 181 177 175 175 173 174 174 171 156
257 261 268 278 277 277 276 270 265 256 242 230 229 234 224 220 226 221 235 240 233 227 219 216 214 213 211 207 206 204 205 201 198 199 196 198 199 197 191 189 185 185 183 183 185 182 182 180 174
273 271 283 277 277 274 272 267 263 258 250 241 233 232 225 221 227 216 211 228 242 237 224 219 215 214 213 211 209 209 206 205 202 201 200 203 205 202 189 186 186 188 191 189 191 193 192 192 186
276 291 288 285 278 273 272 275 264 258 263 253 242 239 231 220 217 215 212 208 213 233 228 220 216 215 214 214 214 213 212 208 208 206 207 205 207 206 195 192 196 196 198 200 198 201 202 200 198
294 304 287 281 273 271 276 269 272 266 262 252 251 241 240 227 217 213 211 207 209 220 227 220 215 215 214 213 213 213 211 209 208 209 209 207 207 207 204 207 205 206 209 210 209 207 208 209 205
310 300 296 283 278 281 272 276 272 266 272 269 251 243 241 239 228 216 210 205 204 213 223 221 216 215 216 216 214 214 211 209 207 208 210 207 209 211 212 210 211 211 215 215 213 210 211 214 213
311 303 300 295 291 281 284 272 262 275 277 272 265 255 242 240 236 219 215 207 207 211 218 224 216 214 216 216 215 214 212 211 212 210 209 207 209 213 215 219 220 225 220 223 216 214 214 215 217
299 299 301 323 310 294 269 273 278 281 278 273 267 262 249 235 237 232 224 214 214 200 200 219 215 215 214 214 213 213 212 212 212 212 210 209 211 214 220 225 228 233 224 220 223 221 219 219 220
298 288 298 313 317 305 267 282 287 286 278 270 270 260 256 239 240 239 232 222 211 205 197 213 212 214 214 213 213 212 212 213 212 213 210 212 211 216 223 227 231 237 229 218 219 220 220 223 224
298 294 296 294 312 289 276 279 284 280 276 266 262 257 253 241 238 239 234 224 220 196 196 196 211 213 211 212 212 211 211 212 212 213 211 215 213 214 217 223 229 233 226 217 220 221 224 226 228
301 297 295 316 325 298 291 288 285 279 274 264 257 257 252 240 234 242 243 219 209 220 193 188 211 211 209 211 211 209 209 210 210 211 213 215 215 215 217 223 226 227 227 223 223 228 231 233 235
302 296 295 308 317 297 295 287 282 281 273 265 258 251 252 246 235 246 242 237 225 189 186 197 202 208 209 211 212 212 211 211 212 212 213 213 215 216 219 223 228 228 229 231 228 230 232 234 237
295 289 302 295 317 297 286 284 287 290 287 268 256 253 244 245 239 244 245 236 211 200 185 194 201 205 207 207 209 209 209 209 209 211 213 213 213 218 221 224 229 230 233 234 235 234 235 235 235
286 324 302 298 296 282 296 285 298 294 294 272 252 231 239 226 233 232 232 228 204 213 211 198 208 205 207 205 209 211 210 209 211 213 214 215 217 218 221 224 230 232 236 241 243 240 235 234 235
301 316 303 299 294 287 290 244 276 298 302 264 245 225 218 213 224 233 219 214 217 213 201 194 210 204 208 206 209 211 212 211 214 213 212 214 216 222 224 226 230 236 240 243 244 242 239 238 240
312 306 310 308 291 253 293 247 287 330 330 291 243 235 225 224 221 195 213 212 203 203 216 220 203 203 206 205 206 209 211 212 213 212 212 214 215 221 224 226 230 234 238 242 242 243 243 243 241
311 313 310 317 246 250 305 312 285 357 346 329 273 257 230 227 212 201 215 231 210 207 209 188 194 197 202 203 203 207 211 214 215 214 213 214 217 223 224 229 231 238 238 239 240 241 243 246 245
307 295 280 315 308 297 313 264 344 347 351 347 325 286 271 203 187 198 223 216 206 212 181 188 187 194 198 203 202 205 208 210 213 215 216 214 220 224 224 227 230 233 233 235 237 241 244 246 247
294 286 306 272 283 271 288 334 8 359 7 11 351 306 223 208 221 242 212 196 213 188 190 187 186 190 197 200 203 205 208 208 211 212 213 215 219 218 221 226 230 230 231 235 237 239 244 249 250
288 289 301 293 309 299 309 322 344 359 1 3 14 12 222 212 207 217 215 204 211 192 192 189 188 191 196 201 202 206 207 208 210 213 215 218 220 218 229 229 229 230 233 238 241 244 245 246 250
298 313 314 313 274 297 320 318 341 355 0 1 358 6 36 226 214 223 203 215 189 183 182 179 184 191 197 199 204 207 207 208 211 214 216 219 220 218 222 227 230 235 239 243 245 248 251 250 251
253 288 353 322 328 300 283 296 355 6 4 3 2 15 63 144 163 179 199 194 166 175 184 188 188 193 196 200 205 207 207 210 213 215 218 219 222 222 226 228 234 240 240 244 247 249 255 254 245